Location: Newark
(55.7083°N, 13.1992°E)
Time: 12:27:05
(UTC+00:00)

Transit 2A Rocket - All Passes

Search period start: 21 February 2020 00:00
Search period end: 02 March 2020 00:00
Orbit: 591 x 911 km, 66.7° (Epoch: 20 February)

Date Brightness Start Highest point End Pass type
(mag) Time Alt. Az. Time Alt. Az. Time Alt. Az.
21 Feb - 00:26:29 10° W 00:30:30 32° NNW 00:34:49 10° NE visible
21 Feb - 02:10:44 10° NW 02:14:23 22° N 02:18:16 10° NE visible
21 Feb - 03:53:56 10° NW 03:58:16 32° NNE 04:02:57 10° E visible
21 Feb - 05:36:25 10° NW 05:41:23 89° NE 05:46:50 10° SE visible
21 Feb - 07:19:33 10° WNW 07:23:31 23° WSW 07:27:43 10° SSW daylight
21 Feb - 22:00:51 10° SSW 22:05:02 50° SE 22:09:29 10° NE night (unlit)
21 Feb - 23:43:31 10° WSW 23:47:43 41° NNW 23:52:13 10° NE visible
22 Feb - 01:27:45 10° WNW 01:31:26 23° N 01:35:20 10° NE visible
22 Feb - 03:11:19 10° NW 03:15:24 27° NNE 03:19:47 10° ENE visible
22 Feb - 04:53:53 10° NW 04:58:46 65° NE 05:04:08 10° ESE visible
22 Feb - 06:36:38 10° NW 06:41:11 34° WSW 06:46:05 10° S daylight
22 Feb - 21:18:50 10° S 21:22:40 31° ESE 21:26:43 10° NE night (unlit)
22 Feb - 23:00:40 10° WSW 23:05:00 57° NW 23:09:39 10° NE visible
23 Feb - 00:44:43 10° WNW 00:48:29 25° NNW 00:52:31 10° NE visible
23 Feb - 02:28:36 10° NW 02:32:29 24° NNE 02:36:38 10° ENE visible
23 Feb - 04:11:21 10° NW 04:16:05 48° NE 04:21:16 10° ESE visible
23 Feb - 05:53:55 10° NW 05:58:46 50° SW 06:04:04 10° SSE daylight
23 Feb - 07:38:56 10° W 07:40:24 11° WSW 07:41:54 10° WSW daylight
23 Feb - 20:37:14 10° SSE 20:40:25 20° ESE 20:43:44 10° ENE night (unlit)
23 Feb - 22:17:59 10° SW 22:22:22 82° NW 22:27:05 10° NE night (unlit)
24 Feb - 00:01:39 10° W 00:05:35 29° NNW 00:09:48 10° NE visible
24 Feb - 01:45:48 10° NW 01:49:33 23° N 01:53:31 10° ENE visible
24 Feb - 03:28:48 10° NW 03:33:20 37° NNE 03:38:15 10° E visible
24 Feb - 05:11:18 10° NW 05:16:17 73° SW 05:21:46 10° SSE visible
24 Feb - 06:54:50 10° WNW 06:58:13 18° WSW 07:01:47 10° SSW daylight
24 Feb - 19:56:25 10° SE 19:58:16 12° ESE 20:00:08 10° E night (unlit)
24 Feb - 21:35:32 10° SSW 21:39:51 67° SE 21:44:29 10° NE night (unlit)
24 Feb - 23:18:38 10° W 23:22:45 35° NNW 23:27:10 10° NE visible
25 Feb - 01:02:54 10° NW 01:06:35 22° N 01:10:30 10° NE visible
25 Feb - 02:46:14 10° NW 02:50:30 30° NNE 02:55:08 10° E visible
25 Feb - 04:28:44 10° NW 04:33:44 80° NE 04:39:12 10° SE visible
25 Feb - 06:11:43 10° WNW 06:15:58 27° WSW 06:20:29 10° S daylight
25 Feb - 20:53:18 10° SSW 20:57:25 42° ESE 21:01:48 10° NE night (unlit)
25 Feb - 22:35:42 10° WSW 22:39:59 46° NW 22:44:35 10° NE night (unlit)
26 Feb - 00:19:54 10° WNW 00:23:38 24° N 00:27:37 10° NE visible
26 Feb - 02:03:35 10° NW 02:07:37 26° NNE 02:11:58 10° ENE visible
26 Feb - 03:46:12 10° NW 03:51:06 58° NE 03:56:27 10° ESE visible
26 Feb - 05:28:53 10° NW 05:33:36 39° WSW 05:38:42 10° S visible
26 Feb - 20:11:25 10° S 20:15:06 27° ESE 20:18:58 10° ENE night (unlit)
26 Feb - 21:52:55 10° SW 21:57:18 64° NW 22:02:01 10° NE night (unlit)
26 Feb - 23:36:51 10° WNW 23:40:42 26° NNW 23:44:50 10° NE visible
27 Feb - 01:20:50 10° NW 01:24:42 24° N 01:28:50 10° ENE visible
27 Feb - 03:03:40 10° NW 03:08:23 44° NNE 03:13:31 10° ESE visible
27 Feb - 04:46:12 10° NW 04:51:10 58° SW 04:56:35 10° SSE visible
27 Feb - 06:30:26 10° W 06:32:54 13° WSW 06:35:27 10° SW daylight
27 Feb - 19:30:01 10° SSE 19:32:53 17° ESE 19:35:51 10° ENE night (unlit)
27 Feb - 21:10:19 10° SW 21:14:42 87° SE 21:19:26 10° NE night (unlit)
27 Feb - 22:53:47 10° W 22:57:49 31° NNW 23:02:09 10° NE visible
28 Feb - 00:38:00 10° NW 00:41:45 23° N 00:45:44 10° NE visible
28 Feb - 02:21:07 10° NW 02:25:36 35° NNE 02:30:28 10° E visible
28 Feb - 04:03:36 10° NW 04:08:39 83° SW 04:14:11 10° SE visible
28 Feb - 05:46:55 10° WNW 05:50:42 21° WSW 05:54:42 10° SSW daylight
28 Feb - 18:49:58 10° ESE 18:50:45 10° ESE 18:51:32 10° E night (unlit)
28 Feb - 20:27:55 10° SSW 20:32:12 57° SE 20:36:48 10° NE night (unlit)
28 Feb - 22:10:48 10° W 22:15:00 38° NNW 22:19:32 10° NE night (unlit)
28 Feb - 23:55:03 10° WNW 23:58:47 23° N 00:02:46 10° NE visible
29 Feb - 01:38:30 10° NW 01:42:45 29° NNE 01:47:20 10° E visible
29 Feb - 03:21:03 10° NW 03:26:04 72° NE 03:31:33 10° SE visible
29 Feb - 05:03:55 10° WNW 05:08:24 31° WSW 05:13:13 10° S visible
29 Feb - 19:45:49 10° S 19:49:49 36° ESE 19:54:05 10° NE night (unlit)
29 Feb - 21:27:55 10° WSW 21:32:16 51° NW 21:36:57 10° NE night (unlit)
29 Feb - 23:12:01 10° WNW 23:15:50 25° NNW 23:19:54 10° NE visible
01 Mar - 00:55:50 10° NW 00:59:51 25° NNE 01:04:10 10° ENE visible
01 Mar - 02:38:31 10° NW 02:43:23 53° NE 02:48:43 10° ESE visible
01 Mar - 04:21:09 10° NW 04:26:00 45° WSW 04:31:17 10° SSE visible
01 Mar - 19:04:03 10° SSE 19:07:32 23° ESE 19:11:11 10° ENE night (unlit)
01 Mar - 20:45:11 10° SW 20:49:36 73° NW 20:54:23 10° NE night (unlit)
01 Mar - 22:28:58 10° WNW 22:32:55 28° NNW 22:37:09 10° NE night (unlit)
